Wetterdaten: Sonntag, 20.05.2012
Datum Zeit Temperatur Luftfeuchte Regen Wind Richtung Richtung Taupunkt Windchill Windben
20.05.2012 00:00 10,6 C 80 % 0,0 l/m 0,3 km/h (0 Bft) SW 225 7,3 C 10,7 C 0,0 km/h (0 Bft)
20.05.2012 00:05 10,3 C 79 % 0,0 l/m 0,3 km/h (0 Bft) N-NO 22 6,8 C 10,8 C 2,1 km/h (1 Bft)
20.05.2012 00:10 10,6 C 80 % 0,0 l/m 0,5 km/h (0 Bft) N 360 7,3 C 10,6 C 2,4 km/h (1 Bft)
20.05.2012 00:15 10,9 C 79 % 0,0 l/m 0,8 km/h (0 Bft) O-NO 67 7,4 C 10,7 C 1,6 km/h (1 Bft)
20.05.2012 00:20 10,6 C 78 % 0,0 l/m 0,3 km/h (0 Bft) S 180 6,9 C 10,8 C 0,0 km/h (0 Bft)
20.05.2012 00:25 10,3 C 78 % 0,0 l/m 0,2 km/h (0 Bft) S 180 6,6 C 10,6 C 2,9 km/h (1 Bft)
20.05.2012 00:30 10,1 C 79 % 0,0 l/m 0,8 km/h (0 Bft) W-NW 292 6,6 C 10,4 C 1,9 km/h (1 Bft)
20.05.2012 00:35 10,0 C 79 % 0,0 l/m 0,8 km/h (0 Bft) N 360 6,5 C 10,4 C 3,9 km/h (1 Bft)
20.05.2012 00:40 9,9 C 81 % 0,0 l/m 1,3 km/h (1 Bft) SO 135 6,8 C 10,1 C 5,0 km/h (1 Bft)
20.05.2012 00:45 9,7 C 81 % 0,0 l/m 1,6 km/h (1 Bft) N-NO 22 6,6 C 10,0 C 5,1 km/h (1 Bft)
20.05.2012 00:50 9,8 C 81 % 0,0 l/m 1,0 km/h (0 Bft) O 90 6,7 C 9,7 C 0,0 km/h (0 Bft)
20.05.2012 00:55 9,5 C 82 % 0,0 l/m 0,2 km/h (0 Bft) N-NO 22 6,6 C 9,6 C 0,0 km/h (0 Bft)
20.05.2012 01:00 9,6 C 81 % 0,0 l/m 0,0 km/h (0 Bft) N-NO 22 6,5 C 9,4 C 0,0 km/h (0 Bft)
20.05.2012 01:05 9,3 C 81 % 0,0 l/m 0,0 km/h (0 Bft) N-NO 22 6,2 C 9,4 C 0,0 km/h (0 Bft)
20.05.2012 01:10 9,6 C 79 % 0,0 l/m 0,0 km/h (0 Bft) N 360 6,1 C 9,7 C 0,0 km/h (0 Bft)
20.05.2012 01:15 8,9 C 79 % 0,0 l/m 0,0 km/h (0 Bft) W 270 5,5 C 9,6 C 0,0 km/h (0 Bft)
20.05.2012 01:20 8,8 C 80 % 0,0 l/m 0,2 km/h (0 Bft) S 180 5,5 C 9,2 C 0,0 km/h (0 Bft)
20.05.2012 01:25 9,0 C 81 % 0,0 l/m 0,2 km/h (0 Bft) N 360 5,9 C 9,0 C 0,0 km/h (0 Bft)
20.05.2012 01:30 8,9 C 81 % 0,0 l/m 0,0 km/h (0 Bft) S-SW 202 5,8 C 8,8 C 0,0 km/h (0 Bft)
20.05.2012 01:35 8,6 C 81 % 0,0 l/m 0,0 km/h (0 Bft) SO 135 5,5 C 8,5 C 0,0 km/h (0 Bft)
20.05.2012 01:40 8,8 C 82 % 0,0 l/m 0,2 km/h (0 Bft) O-SO 112 5,9 C 8,4 C 1,8 km/h (1 Bft)
20.05.2012 01:45 8,9 C 83 % 0,0 l/m 0,3 km/h (0 Bft) NO 45 6,2 C 8,4 C 5,5 km/h (1 Bft)
20.05.2012 01:50 9,5 C 81 % 0,0 l/m 0,8 km/h (0 Bft) N-NO 22 6,4 C 8,5 C 2,3 km/h (1 Bft)
20.05.2012 01:55 10,2 C 78 % 0,0 l/m 1,0 km/h (0 Bft) N-NW 337 6,5 C 8,8 C 4,2 km/h (1 Bft)
20.05.2012 02:00 9,5 C 76 % 0,0 l/m 0,8 km/h (0 Bft) N-NW 337 5,5 C 9,1 C 0,0 km/h (0 Bft)
20.05.2012 02:05 8,8 C 77 % 0,0 l/m 0,6 km/h (0 Bft) N-NO 22 5,0 C 8,8 C 1,6 km/h (1 Bft)
20.05.2012 02:10 8,5 C 79 % 0,0 l/m 0,3 km/h (0 Bft) N 360 5,1 C 8,4 C 0,0 km/h (0 Bft)
20.05.2012 02:15 8,3 C 79 % 0,0 l/m 0,3 km/h (0 Bft) W 270 4,9 C 8,3 C 0,0 km/h (0 Bft)
20.05.2012 02:20 7,9 C 80 % 0,0 l/m 0,0 km/h (0 Bft) N 360 4,7 C 7,9 C 0,0 km/h (0 Bft)
20.05.2012 02:25 7,6 C 81 % 0,0 l/m 0,0 km/h (0 Bft) N 360 4,6 C 7,7 C 0,0 km/h (0 Bft)
20.05.2012 02:30 8,3 C 81 % 0,0 l/m 0,2 km/h (0 Bft) N-NW 337 5,2 C 7,6 C 0,0 km/h (0 Bft)
20.05.2012 02:35 8,7 C 81 % 0,0 l/m 0,3 km/h (0 Bft) N-NW 337 5,6 C 7,8 C 2,6 km/h (1 Bft)
20.05.2012 02:40 8,3 C 79 % 0,0 l/m 0,3 km/h (0 Bft) N 360 4,9 C 8,1 C 0,0 km/h (0 Bft)
20.05.2012 02:45 8,0 C 80 % 0,0 l/m 0,6 km/h (0 Bft) SO 135 4,8 C 8,0 C 3,1 km/h (1 Bft)
20.05.2012 02:50 7,7 C 80 % 0,0 l/m 0,6 km/h (0 Bft) N 360 4,5 C 7,9 C 0,0 km/h (0 Bft)
20.05.2012 02:55 7,7 C 80 % 0,0 l/m 0,5 km/h (0 Bft) O-NO 67 4,5 C 7,7 C 0,0 km/h (0 Bft)
20.05.2012 03:00 7,3 C 80 % 0,0 l/m 0,0 km/h (0 Bft) O-NO 67 4,1 C 7,5 C 0,0 km/h (0 Bft)
20.05.2012 03:05 7,1 C 80 % 0,0 l/m 0,0 km/h (0 Bft) S 180 3,9 C 7,3 C 0,0 km/h (0 Bft)
20.05.2012 03:10 7,0 C 83 % 0,0 l/m 0,0 km/h (0 Bft) N-NW 337 4,3 C 7,0 C 0,0 km/h (0 Bft)
20.05.2012 03:15 7,1 C 83 % 0,0 l/m 0,0 km/h (0 Bft) W-NW 292 4,4 C 6,9 C 0,0 km/h (0 Bft)
20.05.2012 03:20 6,9 C 83 % 0,0 l/m 0,0 km/h (0 Bft) W-NW 292 4,2 C 7,0 C 0,0 km/h (0 Bft)
20.05.2012 03:25 7,2 C 84 % 0,0 l/m 0,3 km/h (0 Bft) N-NW 337 4,7 C 7,1 C 2,1 km/h (1 Bft)
20.05.2012 03:30 7,4 C 84 % 0,0 l/m 0,6 km/h (0 Bft) O-SO 112 4,9 C 7,3 C 3,2 km/h (1 Bft)
20.05.2012 03:35 7,1 C 83 % 0,0 l/m 1,4 km/h (1 Bft) O-SO 112 4,4 C 7,2 C 3,7 km/h (1 Bft)
20.05.2012 03:40 7,5 C 84 % 0,0 l/m 1,4 km/h (1 Bft) N 360 5,0 C 7,3 C 2,7 km/h (1 Bft)
20.05.2012 03:45 7,9 C 83 % 0,0 l/m 1,0 km/h (0 Bft) O 90 5,2 C 7,5 C 0,0 km/h (0 Bft)
20.05.2012 03:50 7,3 C 82 % 0,0 l/m 1,3 km/h (1 Bft) O-SO 112 4,4 C 7,6 C 0,0 km/h (0 Bft)
20.05.2012 03:55 7,0 C 82 % 0,0 l/m 0,6 km/h (0 Bft) NO 45 4,1 C 7,5 C 0,0 km/h (0 Bft)
20.05.2012 04:00 8,4 C 82 % 0,0 l/m 0,6 km/h (0 Bft) NO 45 5,5 C 7,4 C 0,0 km/h (0 Bft)
20.05.2012 04:05 7,5 C 81 % 0,0 l/m 0,6 km/h (0 Bft) NO 45 4,5 C 7,5 C 2,1 km/h (1 Bft)
20.05.2012 04:10 7,4 C 81 % 0,0 l/m 0,3 km/h (0 Bft) O-SO 112 4,4 C 7,5 C 0,0 km/h (0 Bft)
20.05.2012 04:15 7,1 C 81 % 0,0 l/m 0,5 km/h (0 Bft) N-NW 337 4,1 C 7,2 C 0,0 km/h (0 Bft)
20.05.2012 04:20 6,9 C 82 % 0,0 l/m 0,2 km/h (0 Bft) S 180 4,0 C 7,2 C 0,0 km/h (0 Bft)
20.05.2012 04:25 6,8 C 83 % 0,0 l/m 0,3 km/h (0 Bft) N-NW 337 4,1 C 7,0 C 2,6 km/h (1 Bft)
20.05.2012 04:30 6,9 C 85 % 0,0 l/m 0,5 km/h (0 Bft) W 270 4,6 C 6,9 C 0,0 km/h (0 Bft)
20.05.2012 04:35 6,9 C 84 % 0,0 l/m 0,3 km/h (0 Bft) N 360 4,4 C 6,9 C 2,4 km/h (1 Bft)
20.05.2012 04:40 7,6 C 83 % 0,0 l/m 0,3 km/h (0 Bft) O 90 4,9 C 7,1 C 0,0 km/h (0 Bft)
20.05.2012 04:46 7,2 C 82 % 0,0 l/m 0,0 km/h (0 Bft) S 180 4,3 C 7,2 C 0,0 km/h (0 Bft)
20.05.2012 04:50 7,2 C 82 % 0,0 l/m 0,0 km/h (0 Bft) S 180 4,3 C 7,2 C 0,0 km/h (0 Bft)
20.05.2012 04:55 6,9 C 82 % 0,0 l/m 0,5 km/h (0 Bft) N-NO 22 4,0 C 7,2 C 0,0 km/h (0 Bft)
20.05.2012 05:00 7,0 C 82 % 0,0 l/m 0,6 km/h (0 Bft) S 180 4,1 C 7,2 C 0,0 km/h (0 Bft)
20.05.2012 05:05 6,8 C 83 % 0,0 l/m 0,3 km/h (0 Bft) NW 315 4,1 C 7,0 C 1,8 km/h (1 Bft)
20.05.2012 05:10 7,4 C 83 % 0,0 l/m 0,6 km/h (0 Bft) N 360 4,7 C 7,1 C 1,6 km/h (1 Bft)
20.05.2012 05:15 7,1 C 82 % 0,0 l/m 0,6 km/h (0 Bft) N 360 4,2 C 7,2 C 0,0 km/h (0 Bft)
20.05.2012 05:20 6,9 C 82 % 0,0 l/m 0,5 km/h (0 Bft) SO 135 4,0 C 7,0 C 0,0 km/h (0 Bft)
20.05.2012 05:25 6,7 C 82 % 0,0 l/m 0,8 km/h (0 Bft) SO 135 3,8 C 7,0 C 0,0 km/h (0 Bft)
20.05.2012 05:30 6,6 C 82 % 0,0 l/m 0,3 km/h (0 Bft) S-SW 202 3,8 C 6,9 C 0,0 km/h (0 Bft)
20.05.2012 05:35 6,6 C 82 % 0,0 l/m 0,0 km/h (0 Bft) NW 315 3,8 C 6,8 C 0,0 km/h (0 Bft)
20.05.2012 05:40 6,6 C 83 % 0,0 l/m 0,2 km/h (0 Bft) O-SO 112 3,9 C 6,8 C 2,3 km/h (1 Bft)
20.05.2012 05:45 6,8 C 84 % 0,0 l/m 0,5 km/h (0 Bft) N 360 4,3 C 7,0 C 0,0 km/h (0 Bft)
20.05.2012 05:50 6,8 C 84 % 0,0 l/m 0,5 km/h (0 Bft) N 360 4,3 C 7,0 C 0,0 km/h (0 Bft)
20.05.2012 05:55 7,2 C 84 % 0,0 l/m 0,5 km/h (0 Bft) W-NW 292 4,7 C 7,0 C 0,0 km/h (0 Bft)
20.05.2012 06:00 8,0 C 83 % 0,0 l/m 0,8 km/h (0 Bft) N 360 5,3 C 7,8 C 2,9 km/h (1 Bft)
20.05.2012 06:05 9,2 C 81 % 0,0 l/m 1,4 km/h (1 Bft) N-NO 22 6,2 C 9,0 C 4,0 km/h (1 Bft)
20.05.2012 06:10 10,0 C 75 % 0,0 l/m 2,6 km/h (1 Bft) S 180 5,8 C 10,8 C 3,5 km/h (1 Bft)
20.05.2012 06:15 8,6 C 76 % 0,0 l/m 2,1 km/h (1 Bft) NO 45 4,6 C 10,4 C 0,0 km/h (0 Bft)
20.05.2012 06:20 8,6 C 77 % 0,0 l/m 1,6 km/h (1 Bft) W-SW 247 4,8 C 9,7 C 0,0 km/h (0 Bft)
20.05.2012 06:25 8,6 C 78 % 0,0 l/m 1,6 km/h (1 Bft) SO 135 5,0 C 9,7 C 1,9 km/h (1 Bft)
20.05.2012 06:30 9,0 C 76 % 0,0 l/m 1,4 km/h (1 Bft) NO 45 5,0 C 9,7 C 0,0 km/h (0 Bft)
20.05.2012 06:35 9,7 C 75 % 0,0 l/m 0,8 km/h (0 Bft) NO 45 5,5 C 9,7 C 0,0 km/h (0 Bft)
20.05.2012 06:40 10,0 C 73 % 0,0 l/m 0,5 km/h (0 Bft) O-SO 112 5,4 C 9,8 C 3,4 km/h (1 Bft)
20.05.2012 06:45 9,8 C 74 % 0,0 l/m 0,5 km/h (0 Bft) S 180 5,4 C 9,9 C 0,0 km/h (0 Bft)
20.05.2012 06:50 10,9 C 71 % 0,0 l/m 0,6 km/h (0 Bft) N 360 5,9 C 11,1 C 0,0 km/h (0 Bft)
20.05.2012 06:55 11,1 C 69 % 0,0 l/m 0,2 km/h (0 Bft) N 360 5,6 C 11,9 C 0,0 km/h (0 Bft)
20.05.2012 07:00 13,0 C 67 % 0,0 l/m 0,0 km/h (0 Bft) S-SW 202 7,0 C 13,3 C 0,0 km/h (0 Bft)
20.05.2012 07:05 13,5 C 62 % 0,0 l/m 0,0 km/h (0 Bft) O 90 6,4 C 14,8 C 0,0 km/h (0 Bft)
20.05.2012 07:10 14,3 C 62 % 0,0 l/m 0,0 km/h (0 Bft) N 360 7,1 C 16,2 C 0,0 km/h (0 Bft)
20.05.2012 07:15 14,8 C 65 % 0,0 l/m 0,0 km/h (0 Bft) NO 45 8,3 C 16,5 C 0,0 km/h (0 Bft)
20.05.2012 07:20 16,3 C 60 % 0,0 l/m 0,2 km/h (0 Bft) S 180 8,5 C 16,9 C 0,0 km/h (0 Bft)
20.05.2012 07:25 17,4 C 59 % 0,0 l/m 0,2 km/h (0 Bft) NO 45 9,3 C 17,6 C 0,0 km/h (0 Bft)
20.05.2012 07:30 17,2 C 52 % 0,0 l/m 0,3 km/h (0 Bft) NW 315 7,3 C 19,0 C 1,6 km/h (1 Bft)
20.05.2012 07:35 17,6 C 55 % 0,0 l/m 0,5 km/h (0 Bft) N 360 8,5 C 19,2 C 2,3 km/h (1 Bft)
20.05.2012 07:40 19,4 C 56 % 0,0 l/m 1,0 km/h (0 Bft) N-NO 22 10,4 C 19,6 C 1,8 km/h (1 Bft)
20.05.2012 07:45 20,1 C 51 % 0,0 l/m 1,0 km/h (0 Bft) NW 315 9,6 C 20,4 C 3,2 km/h (1 Bft)
20.05.2012 07:50 20,8 C 48 % 0,0 l/m 0,8 km/h (0 Bft) N-NW 337 9,4 C 21,7 C 2,3 km/h (1 Bft)
20.05.2012 07:55 21,6 C 48 % 0,0 l/m 1,1 km/h (1 Bft) NO 45 10,1 C 22,3 C 0,0 km/h (0 Bft)
20.05.2012 08:00 21,8 C 45 % 0,0 l/m 1,3 km/h (1 Bft) N 360 9,3 C 23,0 C 2,1 km/h (1 Bft)
20.05.2012 08:05 22,2 C 44 % 0,0 l/m 1,9 km/h (1 Bft) N-NO 22 9,4 C 23,2 C 8,0 km/h (2 Bft)
20.05.2012 08:10 22,7 C 43 % 0,0 l/m 2,7 km/h (1 Bft) N-NW 337 9,5 C 23,5 C 5,3 km/h (1 Bft)
20.05.2012 08:15 23,1 C 42 % 0,0 l/m 2,3 km/h (1 Bft) N-NO 22 9,5 C 23,8 C 0,0 km/h (0 Bft)
20.05.2012 08:20 22,9 C 45 % 0,0 l/m 1,3 km/h (1 Bft) W-NW 292 10,3 C 24,3 C 0,0 km/h (0 Bft)
20.05.2012 08:25 23,3 C 40 % 0,0 l/m 0,6 km/h (0 Bft) N-NO 22 8,9 C 24,6 C 0,0 km/h (0 Bft)
20.05.2012 08:30 23,0 C 38 % 0,0 l/m 0,8 km/h (0 Bft) N-NW 337 9,5 C 25,3 C 0,0 km/h (0 Bft)
20.05.2012 08:35 22,9 C 35 % 0,0 l/m 1,1 km/h (1 Bft) NO 45 8,1 C 25,8 C 0,0 km/h (0 Bft)
20.05.2012 08:40 22,7 C 38 % 0,0 l/m 1,0 km/h (0 Bft) NO 45 9,7 C 26,5 C 0,0 km/h (0 Bft)
20.05.2012 08:45 22,7 C 35 % 0,0 l/m 1,1 km/h (1 Bft) N 360 8,6 C 27,0 C 3,1 km/h (1 Bft)
20.05.2012 08:50 22,7 C 38 % 0,0 l/m 0,8 km/h (0 Bft) S 180 10,4 C 27,7 C 0,0 km/h (0 Bft)
20.05.2012 08:55 22,9 C 36 % 0,0 l/m 0,5 km/h (0 Bft) S-SW 202 9,6 C 28,2 C 0,0 km/h (0 Bft)
20.05.2012 09:00 23,1 C 34 % 0,0 l/m 0,3 km/h (0 Bft) W-SW 247 9,4 C 28,8 C 0,0 km/h (0 Bft)
20.05.2012 09:05 23,2 C 33 % 0,0 l/m 0,2 km/h (0 Bft) W-SW 247 8,8 C 29,1 C 3,1 km/h (1 Bft)
20.05.2012 09:10 23,6 C 33 % 0,0 l/m 1,3 km/h (1 Bft) S-SO 157 8,8 C 28,9 C 5,1 km/h (1 Bft)
20.05.2012 09:15 23,6 C 32 % 0,0 l/m 1,4 km/h (1 Bft) N 360 8,4 C 29,2 C 0,0 km/h (0 Bft)
20.05.2012 09:20 23,9 C 32 % 0,0 l/m 1,3 km/h (1 Bft) W-NW 292 8,4 C 29,2 C 0,0 km/h (0 Bft)
20.05.2012 09:25 24,1 C 33 % 0,0 l/m 1,3 km/h (1 Bft) S 180 9,2 C 29,4 C 0,0 km/h (0 Bft)
20.05.2012 09:30 24,7 C 31 % 0,0 l/m 0,8 km/h (0 Bft) SO 135 8,2 C 29,8 C 5,1 km/h (1 Bft)
20.05.2012 09:35 24,7 C 30 % 0,0 l/m 1,0 km/h (0 Bft) W 270 7,6 C 29,9 C 0,0 km/h (0 Bft)
20.05.2012 09:40 25,1 C 30 % 0,0 l/m 1,4 km/h (1 Bft) W-SW 247 7,8 C 30,1 C 5,5 km/h (1 Bft)
20.05.2012 09:45 25,1 C 30 % 0,0 l/m 1,6 km/h (1 Bft) N 360 8,4 C 29,9 C 0,0 km/h (0 Bft)
20.05.2012 09:50 25,0 C 30 % 0,0 l/m 2,7 km/h (1 Bft) N 360 7,5 C 29,6 C 4,3 km/h (1 Bft)
20.05.2012 09:55 25,0 C 30 % 0,0 l/m 3,2 km/h (1 Bft) W 270 7,7 C 29,1 C 10,5 km/h (2 Bft)
20.05.2012 10:00 25,4 C 30 % 0,0 l/m 3,9 km/h (1 Bft) S-SW 202 8,3 C 28,6 C 3,2 km/h (1 Bft)
20.05.2012 10:05 25,7 C 30 % 0,0 l/m 3,5 km/h (1 Bft) N-NW 337 7,8 C 28,9 C 8,5 km/h (2 Bft)
20.05.2012 10:10 25,8 C 29 % 0,0 l/m 3,2 km/h (1 Bft) W-SW 247 7,4 C 28,4 C 3,7 km/h (1 Bft)
20.05.2012 10:15 26,1 C 28 % 0,0 l/m 4,2 km/h (1 Bft) W 270 6,9 C 28,3 C 8,7 km/h (2 Bft)
20.05.2012 10:20 26,0 C 30 % 0,0 l/m 3,7 km/h (1 Bft) NW 315 7,5 C 28,1 C 3,7 km/h (1 Bft)
20.05.2012 10:25 26,4 C 30 % 0,0 l/m 3,7 km/h (1 Bft) W-NW 292 7,8 C 28,0 C 4,3 km/h (1 Bft)
20.05.2012 10:30 26,4 C 29 % 0,0 l/m 2,9 km/h (1 Bft) W-SW 247 7,5 C 28,2 C 2,7 km/h (1 Bft)
20.05.2012 10:35 26,7 C 30 % 0,0 l/m 3,2 km/h (1 Bft) W-NW 292 8,2 C 28,3 C 6,4 km/h (2 Bft)
20.05.2012 10:40 26,7 C 26 % 0,0 l/m 4,7 km/h (1 Bft) W 270 5,8 C 27,8 C 3,7 km/h (1 Bft)
20.05.2012 10:45 26,8 C 28 % 0,0 l/m 4,7 km/h (1 Bft) O-SO 112 7,2 C 27,8 C 2,4 km/h (1 Bft)
20.05.2012 10:50 27,5 C 27 % 0,0 l/m 2,1 km/h (1 Bft) N-NO 22 7,2 C 28,7 C 1,9 km/h (1 Bft)
20.05.2012 10:55 26,7 C 27 % 0,0 l/m 1,6 km/h (1 Bft) N-NW 337 6,1 C 29,0 C 5,3 km/h (1 Bft)
20.05.2012 11:00 26,5 C 27 % 0,0 l/m 2,4 km/h (1 Bft) W-NW 292 6,0 C 28,8 C 3,9 km/h (1 Bft)
20.05.2012 11:05 27,0 C 27 % 0,0 l/m 2,7 km/h (1 Bft) W-SW 247 6,4 C 28,6 C 4,3 km/h (1 Bft)
20.05.2012 11:10 26,5 C 26 % 0,0 l/m 3,9 km/h (1 Bft) NW 315 5,4 C 28,3 C 3,7 km/h (1 Bft)
20.05.2012 11:15 26,4 C 26 % 0,0 l/m 4,0 km/h (1 Bft) W-SW 247 5,3 C 28,0 C 5,8 km/h (2 Bft)
20.05.2012 11:20 27,6 C 25 % 0,0 l/m 2,4 km/h (1 Bft) S 180 5,8 C 28,5 C 5,3 km/h (1 Bft)
20.05.2012 11:25 26,9 C 25 % 0,0 l/m 1,9 km/h (1 Bft) S 180 5,2 C 28,7 C 2,7 km/h (1 Bft)
20.05.2012 11:30 26,6 C 25 % 0,0 l/m 2,4 km/h (1 Bft) N-NW 337 4,9 C 28,9 C 6,9 km/h (2 Bft)
20.05.2012 11:35 26,4 C 26 % 0,0 l/m 2,1 km/h (1 Bft) W-NW 292 5,3 C 28,7 C 2,4 km/h (1 Bft)
20.05.2012 11:40 27,4 C 25 % 0,0 l/m 2,4 km/h (1 Bft) W 270 5,6 C 28,8 C 5,3 km/h (1 Bft)
20.05.2012 11:45 26,5 C 25 % 0,0 l/m 2,9 km/h (1 Bft) S-SW 202 4,9 C 28,4 C 11,6 km/h (2 Bft)
20.05.2012 11:50 26,8 C 25 % 0,0 l/m 5,5 km/h (1 Bft) N-NO 22 5,1 C 27,6 C 3,1 km/h (1 Bft)
20.05.2012 11:55 27,3 C 22 % 0,0 l/m 5,6 km/h (1 Bft) S 180 3,7 C 27,4 C 5,6 km/h (1 Bft)
20.05.2012 12:00 27,8 C 24 % 0,0 l/m 2,9 km/h (1 Bft) W-NW 292 5,4 C 27,4 C 0,0 km/h (0 Bft)
20.05.2012 12:05 27,9 C 25 % 0,0 l/m 2,3 km/h (1 Bft) W-SW 247 6,0 C 27,8 C 5,0 km/h (1 Bft)
20.05.2012 12:10 28,0 C 22 % 0,0 l/m 2,9 km/h (1 Bft) S 180 4,3 C 27,6 C 3,2 km/h (1 Bft)
20.05.2012 12:15 27,7 C 23 % 0,0 l/m 4,8 km/h (1 Bft) SO 135 4,7 C 27,2 C 8,2 km/h (2 Bft)
20.05.2012 12:20 28,0 C 24 % 0,0 l/m 4,7 km/h (1 Bft) O 90 5,5 C 26,8 C 6,6 km/h (2 Bft)
20.05.2012 12:25 27,9 C 23 % 0,0 l/m 3,5 km/h (1 Bft) O-SO 112 4,8 C 26,8 C 3,9 km/h (1 Bft)
20.05.2012 12:30 27,9 C 23 % 0,0 l/m 3,2 km/h (1 Bft) N-NW 337 4,8 C 27,0 C 6,1 km/h (2 Bft)
20.05.2012 12:35 26,9 C 24 % 0,0 l/m 4,7 km/h (1 Bft) W-NW 292 4,6 C 26,5 C 12,6 km/h (3 Bft)
20.05.2012 12:40 26,6 C 24 % 0,0 l/m 6,1 km/h (2 Bft) W 270 4,4 C 25,8 C 10,5 km/h (2 Bft)
20.05.2012 12:45 27,0 C 29 % 0,0 l/m 4,8 km/h (1 Bft) W 270 7,4 C 25,8 C 6,4 km/h (2 Bft)
20.05.2012 12:50 26,8 C 24 % 0,0 l/m 4,2 km/h (1 Bft) NW 315 4,5 C 25,9 C 8,0 km/h (2 Bft)
20.05.2012 12:55 26,4 C 24 % 0,0 l/m 4,8 km/h (1 Bft) W-NW 292 4,2 C 25,8 C 6,4 km/h (2 Bft)
20.05.2012 13:00 26,4 C 26 % 0,0 l/m 5,5 km/h (1 Bft) W-NW 292 5,3 C 25,5 C 4,3 km/h (1 Bft)
20.05.2012 13:05 27,0 C 24 % 0,0 l/m 4,5 km/h (1 Bft) S 180 4,7 C 25,7 C 4,5 km/h (1 Bft)
20.05.2012 13:10 26,7 C 25 % 0,0 l/m 4,7 km/h (1 Bft) W-NW 292 5,0 C 25,8 C 11,7 km/h (2 Bft)
20.05.2012 13:15 26,2 C 26 % 0,0 l/m 6,3 km/h (2 Bft) W-NW 292 5,2 C 25,8 C 15,0 km/h (3 Bft)
20.05.2012 13:20 25,9 C 26 % 0,0 l/m 7,7 km/h (2 Bft) W 270 4,9 C 25,4 C 16,1 km/h (3 Bft)
20.05.2012 13:25 25,9 C 26 % 0,0 l/m 7,4 km/h (2 Bft) W-NW 292 4,9 C 25,5 C 6,6 km/h (2 Bft)
20.05.2012 13:30 26,1 C 25 % 0,0 l/m 5,6 km/h (1 Bft) N-NW 337 4,5 C 26,1 C 2,7 km/h (1 Bft)
20.05.2012 13:35 25,8 C 23 % 0,0 l/m 5,5 km/h (1 Bft) NO 45 3,1 C 26,3 C 9,0 km/h (2 Bft)
20.05.2012 13:40 26,3 C 25 % 0,0 l/m 5,6 km/h (1 Bft) W 270 4,7 C 26,7 C 10,1 km/h (2 Bft)
20.05.2012 13:45 26,4 C 26 % 0,0 l/m 5,6 km/h (1 Bft) NW 315 5,3 C 27,0 C 9,0 km/h (2 Bft)
20.05.2012 13:50 26,4 C 27 % 0,0 l/m 6,1 km/h (2 Bft) W 270 5,9 C 27,3 C 7,2 km/h (2 Bft)
20.05.2012 13:55 26,5 C 26 % 0,0 l/m 5,1 km/h (1 Bft) W-NW 292 5,4 C 27,6 C 6,1 km/h (2 Bft)
20.05.2012 14:00 25,9 C 30 % 0,0 l/m 6,3 km/h (2 Bft) W-NW 292 7,0 C 27,5 C 8,2 km/h (2 Bft)
20.05.2012 14:05 26,3 C 26 % 0,0 l/m 7,1 km/h (2 Bft) W-SW 247 5,3 C 27,4 C 9,5 km/h (2 Bft)
20.05.2012 14:10 26,1 C 26 % 0,0 l/m 7,6 km/h (2 Bft) W-SW 247 5,1 C 27,1 C 7,7 km/h (2 Bft)
20.05.2012 14:15 26,4 C 25 % 0,0 l/m 7,6 km/h (2 Bft) SW 225 4,8 C 27,1 C 6,9 km/h (2 Bft)
20.05.2012 14:20 26,1 C 28 % 0,0 l/m 6,9 km/h (2 Bft) W-NW 292 6,2 C 27,4 C 9,2 km/h (2 Bft)
20.05.2012 14:25 26,0 C 26 % 0,0 l/m 6,0 km/h (2 Bft) N-NW 337 5,0 C 27,5 C 4,2 km/h (1 Bft)
20.05.2012 14:30 26,6 C 30 % 0,0 l/m 4,5 km/h (1 Bft) W-SW 247 7,6 C 27,9 C 2,7 km/h (1 Bft)
20.05.2012 14:35 26,8 C 28 % 0,0 l/m 3,5 km/h (1 Bft) N-NW 337 6,8 C 28,3 C 4,2 km/h (1 Bft)
20.05.2012 14:40 25,8 C 25 % 0,0 l/m 4,3 km/h (1 Bft) W-NW 292 4,3 C 28,1 C 8,2 km/h (2 Bft)
20.05.2012 14:45 26,0 C 28 % 0,0 l/m 5,0 km/h (1 Bft) W-NW 292 6,1 C 27,9 C 4,3 km/h (1 Bft)
20.05.2012 14:50 26,3 C 27 % 0,0 l/m 3,1 km/h (1 Bft) S-SW 202 5,8 C 28,3 C 3,4 km/h (1 Bft)
20.05.2012 14:55 26,3 C 30 % 0,0 l/m 2,3 km/h (1 Bft) NW 315 7,3 C 28,5 C 3,9 km/h (1 Bft)
20.05.2012 15:00 25,7 C 30 % 0,0 l/m 2,9 km/h (1 Bft) W 270 6,8 C 28,3 C 5,5 km/h (1 Bft)
20.05.2012 15:05 25,7 C 30 % 0,0 l/m 2,6 km/h (1 Bft) S-SW 202 6,8 C 28,1 C 3,5 km/h (1 Bft)
20.05.2012 15:10 25,0 C 34 % 0,0 l/m 2,7 km/h (1 Bft) SW 225 8,0 C 27,7 C 2,1 km/h (1 Bft)
20.05.2012 15:15 25,2 C 37 % 0,0 l/m 2,3 km/h (1 Bft) W-NW 292 9,5 C 27,5 C 3,7 km/h (1 Bft)
20.05.2012 15:20 25,0 C 35 % 0,0 l/m 1,4 km/h (1 Bft) O 90 8,5 C 27,2 C 0,0 km/h (0 Bft)
20.05.2012 15:25 24,8 C 31 % 0,0 l/m 2,1 km/h (1 Bft) N-NW 337 6,5 C 27,1 C 6,6 km/h (2 Bft)
20.05.2012 15:30 24,5 C 36 % 0,0 l/m 1,1 km/h (1 Bft) N-NW 337 8,4 C 26,8 C 2,3 km/h (1 Bft)
20.05.2012 15:35 24,5 C 38 % 0,0 l/m 1,0 km/h (0 Bft) N 360 9,2 C 26,7 C 0,0 km/h (0 Bft)
20.05.2012 15:40 24,0 C 40 % 0,0 l/m 0,8 km/h (0 Bft) NW 315 9,6 C 26,6 C 1,6 km/h (1 Bft)
20.05.2012 15:45 24,1 C 36 % 0,0 l/m 1,1 km/h (1 Bft) O 90 8,1 C 26,3 C 3,9 km/h (1 Bft)
20.05.2012 15:50 23,9 C 39 % 0,0 l/m 1,8 km/h (1 Bft) N-NW 337 9,1 C 26,0 C 2,4 km/h (1 Bft)
20.05.2012 15:55 23,8 C 40 % 0,0 l/m 1,3 km/h (1 Bft) N-NW 337 9,4 C 25,9 C 0,0 km/h (0 Bft)
20.05.2012 16:00 24,2 C 38 % 0,0 l/m 0,6 km/h (0 Bft) S-SW 202 9,0 C 26,0 C 0,0 km/h (0 Bft)
20.05.2012 16:05 24,2 C 38 % 0,0 l/m 0,3 km/h (0 Bft) S-SO 157 9,0 C 26,3 C 0,0 km/h (0 Bft)
20.05.2012 16:10 23,8 C 42 % 0,0 l/m 0,2 km/h (0 Bft) N 360 10,1 C 26,5 C 0,0 km/h (0 Bft)
20.05.2012 16:15 23,6 C 40 % 0,0 l/m 1,0 km/h (0 Bft) N 360 9,2 C 26,2 C 1,6 km/h (1 Bft)
20.05.2012 16:20 23,2 C 40 % 0,0 l/m 1,4 km/h (1 Bft) N 360 8,8 C 25,7 C 3,2 km/h (1 Bft)
20.05.2012 16:25 22,8 C 43 % 0,0 l/m 1,1 km/h (1 Bft) W-NW 292 9,6 C 25,2 C 4,3 km/h (1 Bft)
20.05.2012 16:30 22,3 C 42 % 0,0 l/m 1,4 km/h (1 Bft) NO 45 8,8 C 24,4 C 2,3 km/h (1 Bft)
20.05.2012 16:35 22,1 C 46 % 0,0 l/m 1,1 km/h (1 Bft) W 270 9,9 C 24,2 C 2,4 km/h (1 Bft)
20.05.2012 16:40 21,9 C 45 % 0,0 l/m 1,1 km/h (1 Bft) N-NO 22 9,4 C 23,8 C 3,2 km/h (1 Bft)
20.05.2012 16:45 21,9 C 44 % 0,0 l/m 1,1 km/h (1 Bft) W-NW 292 9,1 C 23,7 C 1,9 km/h (1 Bft)
20.05.2012 16:50 22,2 C 44 % 0,0 l/m 1,0 km/h (0 Bft) N 360 9,4 C 23,7 C 2,4 km/h (1 Bft)
20.05.2012 16:55 22,5 C 42 % 0,0 l/m 0,8 km/h (0 Bft) N 360 8,9 C 23,9 C 0,0 km/h (0 Bft)
20.05.2012 17:00 22,7 C 43 % 0,0 l/m 1,6 km/h (1 Bft) W 270 9,5 C 24,2 C 1,8 km/h (1 Bft)
20.05.2012 17:05 22,8 C 46 % 0,0 l/m 1,6 km/h (1 Bft) N-NW 337 10,6 C 24,5 C 2,3 km/h (1 Bft)
20.05.2012 17:10 23,0 C 46 % 0,0 l/m 0,6 km/h (0 Bft) SO 135 10,7 C 24,9 C 0,0 km/h (0 Bft)
20.05.2012 17:15 23,0 C 42 % 0,0 l/m 0,5 km/h (0 Bft) W-NW 292 9,4 C 25,0 C 0,0 km/h (0 Bft)
20.05.2012 17:20 22,7 C 46 % 0,0 l/m 0,8 km/h (0 Bft) N 360 10,5 C 25,1 C 1,9 km/h (1 Bft)
20.05.2012 17:25 22,8 C 44 % 0,0 l/m 0,8 km/h (0 Bft) SW 225 9,9 C 25,0 C 2,9 km/h (1 Bft)
20.05.2012 17:30 22,3 C 42 % 0,0 l/m 2,4 km/h (1 Bft) SO 135 8,8 C 24,5 C 3,9 km/h (1 Bft)
20.05.2012 17:35 22,0 C 44 % 0,0 l/m 3,5 km/h (1 Bft) N-NW 337 9,2 C 24,3 C 4,5 km/h (1 Bft)
20.05.2012 17:40 21,8 C 44 % 0,0 l/m 3,2 km/h (1 Bft) W-SW 247 9,0 C 23,8 C 2,7 km/h (1 Bft)
20.05.2012 17:45 21,5 C 45 % 0,0 l/m 2,6 km/h (1 Bft) S-SO 157 9,1 C 23,5 C 0,0 km/h (0 Bft)
20.05.2012 17:50 21,3 C 45 % 0,0 l/m 1,4 km/h (1 Bft) W-NW 292 8,9 C 23,2 C 2,4 km/h (1 Bft)
20.05.2012 17:55 21,4 C 43 % 0,0 l/m 1,6 km/h (1 Bft) SO 135 8,3 C 23,0 C 0,0 km/h (0 Bft)
20.05.2012 18:00 21,2 C 44 % 0,0 l/m 3,2 km/h (1 Bft) N-NW 337 8,5 C 22,8 C 4,3 km/h (1 Bft)
20.05.2012 18:05 21,3 C 39 % 0,0 l/m 4,0 km/h (1 Bft) W 270 6,8 C 22,7 C 5,0 km/h (1 Bft)
20.05.2012 18:10 21,2 C 39 % 0,0 l/m 4,7 km/h (1 Bft) W-SW 247 6,7 C 22,6 C 4,5 km/h (1 Bft)
20.05.2012 18:15 21,0 C 39 % 0,0 l/m 4,3 km/h (1 Bft) N-NW 337 6,5 C 22,6 C 6,8 km/h (2 Bft)
20.05.2012 18:20 20,7 C 41 % 0,0 l/m 3,1 km/h (1 Bft) NW 315 7,0 C 22,4 C 0,0 km/h (0 Bft)
20.05.2012 18:25 20,5 C 42 % 0,0 l/m 2,6 km/h (1 Bft) W 270 7,1 C 22,2 C 2,9 km/h (1 Bft)
20.05.2012 18:30 20,1 C 44 % 0,0 l/m 2,6 km/h (1 Bft) N-NW 337 7,5 C 21,8 C 5,3 km/h (1 Bft)
20.05.2012 18:35 20,0 C 43 % 0,0 l/m 3,1 km/h (1 Bft) N 360 7,0 C 21,6 C 10,0 km/h (2 Bft)
20.05.2012 18:40 19,7 C 44 % 0,0 l/m 2,9 km/h (1 Bft) N-NO 22 7,1 C 21,4 C 1,6 km/h (1 Bft)
20.05.2012 18:45 19,6 C 43 % 0,0 l/m 3,1 km/h (1 Bft) W-NW 292 6,7 C 21,1 C 2,7 km/h (1 Bft)
20.05.2012 18:50 19,3 C 44 % 0,0 l/m 2,6 km/h (1 Bft) N-NW 337 6,7 C 20,8 C 2,3 km/h (1 Bft)
20.05.2012 18:55 19,3 C 43 % 0,0 l/m 2,7 km/h (1 Bft) W-NW 292 6,4 C 20,7 C 3,9 km/h (1 Bft)
20.05.2012 19:00 19,2 C 45 % 0,0 l/m 1,9 km/h (1 Bft) S-SO 157 7,0 C 20,5 C 0,0 km/h (0 Bft)
20.05.2012 19:05 19,0 C 45 % 0,0 l/m 1,3 km/h (1 Bft) W-NW 292 6,8 C 20,4 C 2,9 km/h (1 Bft)
20.05.2012 19:10 19,2 C 45 % 0,0 l/m 2,3 km/h (1 Bft) N-NW 337 7,0 C 20,2 C 8,0 km/h (2 Bft)
20.05.2012 19:15 19,0 C 46 % 0,0 l/m 3,5 km/h (1 Bft) NW 315 7,1 C 20,3 C 3,9 km/h (1 Bft)
20.05.2012 19:20 18,9 C 43 % 0,0 l/m 3,2 km/h (1 Bft) W-NW 292 6,0 C 20,2 C 7,6 km/h (2 Bft)
20.05.2012 19:25 18,9 C 45 % 0,0 l/m 1,9 km/h (1 Bft) W-SW 247 6,7 C 20,0 C 0,0 km/h (0 Bft)
20.05.2012 19:30 18,6 C 46 % 0,0 l/m 1,6 km/h (1 Bft) N-NW 337 6,8 C 19,8 C 2,6 km/h (1 Bft)
20.05.2012 19:35 18,3 C 46 % 0,0 l/m 1,4 km/h (1 Bft) NW 315 6,5 C 19,7 C 2,3 km/h (1 Bft)
20.05.2012 19:40 18,0 C 47 % 0,0 l/m 1,6 km/h (1 Bft) N-NW 337 6,5 C 19,4 C 0,0 km/h (0 Bft)
20.05.2012 19:45 17,9 C 48 % 0,0 l/m 1,8 km/h (1 Bft) N-NW 337 6,7 C 19,1 C 2,1 km/h (1 Bft)
20.05.2012 19:50 17,8 C 47 % 0,0 l/m 1,6 km/h (1 Bft) W-NW 292 6,3 C 18,9 C 5,8 km/h (2 Bft)
20.05.2012 19:55 17,7 C 48 % 0,0 l/m 1,6 km/h (1 Bft) W-NW 292 6,6 C 18,9 C 1,8 km/h (1 Bft)
20.05.2012 20:00 17,4 C 48 % 0,0 l/m 2,1 km/h (1 Bft) NO 45 6,3 C 18,8 C 3,4 km/h (1 Bft)
20.05.2012 20:05 17,5 C 48 % 0,0 l/m 1,6 km/h (1 Bft) O-SO 112 6,4 C 18,6 C 0,0 km/h (0 Bft)
20.05.2012 20:10 17,6 C 47 % 0,0 l/m 1,8 km/h (1 Bft) W 270 6,2 C 18,6 C 2,6 km/h (1 Bft)
20.05.2012 20:15 17,3 C 48 % 0,0 l/m 1,8 km/h (1 Bft) W-NW 292 6,2 C 18,4 C 4,8 km/h (1 Bft)
20.05.2012 20:20 17,1 C 48 % 0,0 l/m 1,9 km/h (1 Bft) N-NO 22 6,0 C 18,2 C 0,0 km/h (0 Bft)
20.05.2012 20:25 16,9 C 48 % 0,0 l/m 1,9 km/h (1 Bft) S 180 5,8 C 18,0 C 2,4 km/h (1 Bft)
20.05.2012 20:30 16,8 C 49 % 0,0 l/m 1,1 km/h (1 Bft) W-NW 292 6,0 C 17,6 C 1,8 km/h (1 Bft)
20.05.2012 20:35 16,7 C 49 % 0,0 l/m 1,8 km/h (1 Bft) W-NW 292 5,9 C 17,5 C 4,3 km/h (1 Bft)
20.05.2012 20:40 16,5 C 50 % 0,0 l/m 1,4 km/h (1 Bft) N-NW 337 6,0 C 17,3 C 1,9 km/h (1 Bft)
20.05.2012 20:45 16,4 C 50 % 0,0 l/m 1,6 km/h (1 Bft) N 360 6,0 C 17,1 C 2,9 km/h (1 Bft)
20.05.2012 20:50 16,2 C 50 % 0,0 l/m 2,1 km/h (1 Bft) N-NO 22 5,8 C 17,0 C 4,5 km/h (1 Bft)
20.05.2012 20:55 16,4 C 50 % 0,0 l/m 2,4 km/h (1 Bft) S 180 6,0 C 17,1 C 2,6 km/h (1 Bft)
20.05.2012 21:00 16,1 C 51 % 0,0 l/m 2,3 km/h (1 Bft) W 270 6,0 C 17,0 C 5,3 km/h (1 Bft)
20.05.2012 21:05 16,1 C 50 % 0,0 l/m 1,8 km/h (1 Bft) N-NW 337 5,7 C 17,0 C 2,1 km/h (1 Bft)
20.05.2012 21:10 16,1 C 50 % 0,0 l/m 1,6 km/h (1 Bft) W-NW 292 5,7 C 16,8 C 2,9 km/h (1 Bft)
20.05.2012 21:15 15,8 C 53 % 0,0 l/m 1,4 km/h (1 Bft) W-SW 247 6,2 C 16,7 C 0,0 km/h (0 Bft)
20.05.2012 21:20 15,7 C 52 % 0,0 l/m 0,6 km/h (0 Bft) NO 45 5,9 C 16,5 C 0,0 km/h (0 Bft)
20.05.2012 21:25 15,6 C 52 % 0,0 l/m 0,2 km/h (0 Bft) N 360 5,8 C 16,3 C 0,0 km/h (0 Bft)
20.05.2012 21:30 15,7 C 52 % 0,0 l/m 0,5 km/h (0 Bft) NW 315 5,9 C 16,2 C 3,4 km/h (1 Bft)
20.05.2012 21:35 15,8 C 52 % 0,0 l/m 0,5 km/h (0 Bft) N 360 6,0 C 16,1 C 1,8 km/h (1 Bft)
20.05.2012 21:40 15,8 C 52 % 0,0 l/m 0,8 km/h (0 Bft) W-NW 292 6,0 C 16,1 C 0,0 km/h (0 Bft)
20.05.2012 21:45 15,4 C 53 % 0,0 l/m 1,0 km/h (0 Bft) W-NW 292 5,9 C 16,1 C 0,0 km/h (0 Bft)
20.05.2012 21:50 15,5 C 53 % 0,0 l/m 0,8 km/h (0 Bft) S 180 6,0 C 16,1 C 2,4 km/h (1 Bft)
20.05.2012 21:55 15,5 C 53 % 0,0 l/m 0,8 km/h (0 Bft) W-SW 247 6,0 C 16,0 C 1,6 km/h (1 Bft)
20.05.2012 22:00 15,4 C 53 % 0,0 l/m 0,8 km/h (0 Bft) N-NW 337 5,9 C 16,0 C 2,3 km/h (1 Bft)
20.05.2012 22:05 15,4 C 53 % 0,0 l/m 0,6 km/h (0 Bft) S 180 5,9 C 16,0 C 0,0 km/h (0 Bft)
20.05.2012 22:10 15,4 C 53 % 0,0 l/m 0,6 km/h (0 Bft) N 360 5,9 C 15,9 C 0,0 km/h (0 Bft)
20.05.2012 22:15 15,3 C 54 % 0,0 l/m 0,5 km/h (0 Bft) N-NO 22 6,0 C 15,9 C 0,0 km/h (0 Bft)
20.05.2012 22:20 15,0 C 54 % 0,0 l/m 0,8 km/h (0 Bft) S-SO 157 5,8 C 15,8 C 0,0 km/h (0 Bft)
20.05.2012 22:25 15,2 C 54 % 0,0 l/m 1,0 km/h (0 Bft) W 270 6,0 C 15,9 C 2,7 km/h (1 Bft)
20.05.2012 22:30 15,3 C 53 % 0,0 l/m 1,8 km/h (1 Bft) N-NW 337 5,8 C 15,9 C 2,6 km/h (1 Bft)
20.05.2012 22:35 15,1 C 54 % 0,0 l/m 1,9 km/h (1 Bft) S-SO 157 5,9 C 16,1 C 0,0 km/h (0 Bft)
20.05.2012 22:40 15,0 C 55 % 0,0 l/m 1,8 km/h (1 Bft) O-SO 112 6,0 C 16,1 C 6,9 km/h (2 Bft)
20.05.2012 22:45 15,2 C 54 % 0,0 l/m 1,4 km/h (1 Bft) S-SO 157 6,0 C 16,1 C 2,4 km/h (1 Bft)
20.05.2012 22:50 15,2 C 55 % 0,0 l/m 1,9 km/h (1 Bft) S-SW 202 6,2 C 16,2 C 3,1 km/h (1 Bft)
20.05.2012 22:55 15,0 C 54 % 0,0 l/m 2,1 km/h (1 Bft) SO 135 5,8 C 16,3 C 1,9 km/h (1 Bft)
20.05.2012 23:00 14,9 C 54 % 0,0 l/m 1,6 km/h (1 Bft) S-SW 202 5,7 C 16,2 C 3,5 km/h (1 Bft)
20.05.2012 23:05 14,9 C 55 % 0,0 l/m 1,0 km/h (0 Bft) N 360 5,9 C 16,2 C 0,0 km/h (0 Bft)
20.05.2012 23:10 15,1 C 55 % 0,0 l/m 1,9 km/h (1 Bft) O-SO 112 6,1 C 16,1 C 3,5 km/h (1 Bft)
20.05.2012 23:15 15,0 C 55 % 0,0 l/m 2,3 km/h (1 Bft) N-NO 22 6,0 C 16,1 C 0,0 km/h (0 Bft)
20.05.2012 23:20 14,8 C 54 % 0,0 l/m 1,4 km/h (1 Bft) SO 135 5,6 C 15,9 C 3,1 km/h (1 Bft)
20.05.2012 23:25 14,9 C 55 % 0,0 l/m 0,8 km/h (0 Bft) O 90 5,9 C 15,9 C 0,0 km/h (0 Bft)
20.05.2012 23:30 14,6 C 55 % 0,0 l/m 0,5 km/h (0 Bft) S 180 5,7 C 15,7 C 0,0 km/h (0 Bft)
20.05.2012 23:35 14,7 C 55 % 0,0 l/m 0,2 km/h (0 Bft) N-NW 337 5,8 C 15,6 C 1,6 km/h (1 Bft)
20.05.2012 23:40 14,7 C 56 % 0,0 l/m 0,5 km/h (0 Bft) N 360 6,0 C 15,5 C 2,1 km/h (1 Bft)
20.05.2012 23:45 14,7 C 56 % 0,0 l/m 0,6 km/h (0 Bft) NO 45 6,0 C 15,5 C 2,4 km/h (1 Bft)
20.05.2012 23:50 14,9 C 55 % 0,0 l/m 0,6 km/h (0 Bft) S-SW 202 5,9 C 15,5 C 0,0 km/h (0 Bft)
20.05.2012 23:55 14,9 C 55 % 0,0 l/m 0,3 km/h (0 Bft) N-NW 337 5,9 C 15,5 C 0,0 km/h (0 Bft)
_ Min-Zeit 05:40 12:10 - 07:15 - - 13:35 05:40 23:55
Minimum _ 6,6 C 22 % - 0,0 km/h (0 Bft) - - 3,1 C 6,8 C 0,0 km/h (0 Bft)
_ Max-Zeit 12:20 04:30 23:55 13:20 - - 17:10 09:40 13:20
Maximum _ 28,0 C 85 % 0,0 l/m 7,7 km/h
W (2 Bft)
- - 10,7 C 30,1 C 16,1 km/h
W (3 Bft)
Durchschnitt _ 17,8 C 52 % #0,0 l/m 1,8 km/h (1 Bft) W-NW - 6,5 C 18,9 C 2,7 km/h (1 Bft)